Date,TemperatureHighF,TemperatureAvgF,TemperatureLowF,DewpointHighF,DewpointAvgF,DewpointLowF,HumidityHigh,HumidityAvg,HumidityLow,PressureMaxIn,PressureMinIn,WindSpeedMaxMPH,WindSpeedAvgMPH,GustSpeedMaxMPH,PrecipitationSumIn
2013-6-1,52,48,45,48,47,44,100,96,83,0.00,40.00,4,2,6,0.32
2013-6-2,57,50,40,47,43,37,100,79,57,0.00,40.00,6,2,11,0.20
2013-6-3,58,47,36,49,43,36,100,86,60,0.00,40.00,3,0,6,0.14
2013-6-4,54,49,45,50,46,40,100,92,67,0.00,40.00,0,0,0,0.71
2013-6-5,53,48,43,46,43,41,100,83,65,0.00,40.00,0,0,0,0.03
2013-6-6,51,46,43,46,44,41,95,90,74,0.00,40.00,4,0,9,0.21
2013-6-7,58,51,46,50,46,42,100,86,57,0.00,40.00,8,0,14,0.23
2013-6-8,58,51,44,49,46,42,100,85,62,0.00,40.00,0,0,0,0.12
2013-6-9,67,52,38,52,44,38,100,79,45,0.00,40.00,7,1,14,0.05
2013-6-10,72,59,46,51,47,45,98,69,43,0.00,40.00,9,4,14,0.00
2013-6-11,74,58,46,50,45,42,97,67,35,0.00,40.00,9,3,14,0.00
2013-6-12,76,56,48,49,47,42,90,72,30,0.00,40.00,8,4,13,0.00
2013-6-13,60,50,45,46,45,43,98,84,58,0.00,40.00,7,5,14,0.00
2013-6-14,65,54,47,47,44,41,92,72,47,0.00,40.00,8,3,14,0.00
2013-6-15,79,56,42,49,45,41,98,70,33,0.00,40.00,8,3,13,0.00
2013-6-16,81,70,57,47,46,42,68,44,28,0.00,40.00,10,6,16,0.00
2013-6-17,72,60,52,54,47,43,82,63,50,0.00,40.00,8,3,14,0.00
2013-6-18,71,57,52,54,51,48,95,81,54,0.00,40.00,8,4,14,0.00
2013-6-19,72,59,50,57,52,47,97,79,45,0.00,40.00,10,3,16,0.00
2013-6-20,62,56,52,54,51,49,91,85,76,0.00,40.00,4,2,6,0.00
2013-6-22,62,56,52,54,52,51,97,88,70,0.00,40.00,5,3,10,0.29
2013-6-23,68,59,52,54,51,48,96,77,54,0.00,40.00,9,4,13,0.02
2013-6-24,79,62,54,56,51,47,85,69,34,0.00,40.00,10,5,17,0.00
2013-6-25,64,59,54,56,54,53,97,85,72,0.00,40.00,5,4,14,0.42
2013-6-26,63,59,53,56,52,51,97,81,66,0.00,40.00,7,4,11,0.46
2013-6-27,65,58,53,54,50,45,93,74,52,0.00,40.00,8,4,13,0.02
2013-6-28,69,59,49,55,51,47,93,78,56,0.00,40.00,8,3,14,0.01
2013-6-29,65,58,53,56,53,49,96,83,67,0.00,40.00,7,2,12,0.07
2013-6-30,73,61,52,56,53,47,98,76,42,0.00,40.00,7,2,13,0.03